Appleton, MN

1:52 AM CST on February 11, 2016 (GMT -0600)
Appleton Municipal

Weather History for KAQP - October, 2013

Change the Weather History Date:

Wednesday, October 23, 2013

  Actual Average Record
Temperature  
Mean Temperature 35 °F -  
Max Temperature 42 °F - - ()
Min Temperature 28 °F - - ()
Degree Days  
Heating Degree Days 30    
Moisture  
Dew Point 26 °F    
Average Humidity 69    
Maximum Humidity 93    
Minimum Humidity 42    
Precipitation  
Precipitation 0.00 in - - ()
Sea Level Pressure  
Sea Level Pressure 30.08 in    
Wind  
Wind Speed 8 mph (NW)    
Max Wind Speed 20 mph    
Max Gust Speed 25 mph    
Visibility 10 miles    
Events      
T = Trace of Precipitation, MM = Missing Value Source: NWS Daily Summary

Daily Weather History Graph

Daily Weather History Graph

Search for Another Location

Airport or City:

Trip Planner

Search our weather history database for the weather conditions in past years. The results will help you decide how hot, cold, wet, or windy it might be!

Date:

Astronomy

Oct. 23, 2013 Rise Set
Actual Time 7:50 AM CDT 6:24 PM CDT
Civil Twilight 7:20 AM CDT 6:54 PM CDT
Nautical Twilight 6:46 AM CDT 7:29 PM CDT
Astronomical Twilight 6:12 AM CDT 8:03 PM CDT
Moon 9:50 PM CDT (10/23) 12:15 PM CDT (10/23)
Length of Visible Light 11h 34m
Length of Day
10h 33m
Waning Gibbous, 79% of the Moon is Illuminated
Oct 23
Waning Gibbous
Oct 26
Last Quarter
Nov 3
New
Nov 9
First Quarter
Nov 17
Full

Hourly Weather History & Observations

Time (CDT) Temp. Windchill Dew Point Humidity Pressure Visibility Wind Dir Wind Speed Gust Speed Precip Events Conditions
12:14 AM 33.8 °F 29.6 °F 30.2 °F 87% 30.04 in 10.0 mi West 4.6 mph - N/A   Overcast
12:33 AM 33.8 °F 29.6 °F 30.2 °F 87% 30.04 in 10.0 mi West 4.6 mph - N/A   Overcast
12:54 AM 33.8 °F 30.8 °F 28.4 °F 81% 30.04 in 10.0 mi West 3.5 mph - N/A   Mostly Cloudy
1:14 AM 30.2 °F 24.3 °F 26.6 °F 86% 30.04 in 10.0 mi West 5.8 mph - N/A   Scattered Clouds
1:33 AM 28.4 °F 23.3 °F 26.6 °F 93% 30.04 in 10.0 mi West 4.6 mph - N/A   Scattered Clouds
1:53 AM 30.2 °F 24.3 °F 28.4 °F 93% 30.04 in 10.0 mi West 5.8 mph - N/A   Mostly Cloudy
2:14 AM 30.2 °F 24.3 °F 28.4 °F 93% 30.05 in 10.0 mi West 5.8 mph - N/A   Mostly Cloudy
2:34 AM 30.2 °F 25.4 °F 28.4 °F 93% 30.05 in 10.0 mi West 4.6 mph - N/A   Overcast
2:54 AM 30.2 °F 25.4 °F 28.4 °F 93% 30.04 in 10.0 mi West 4.6 mph - N/A   Overcast
3:14 AM 30.2 °F 26.7 °F 28.4 °F 93% 30.03 in 10.0 mi West 3.5 mph - N/A   Overcast
3:33 AM 30.2 °F 26.7 °F 28.4 °F 93% 30.04 in 10.0 mi West 3.5 mph - N/A   Overcast
3:53 AM 32.0 °F 27.5 °F 30.2 °F 93% 30.04 in 10.0 mi West 4.6 mph - N/A   Overcast
4:13 AM 33.8 °F 29.6 °F 30.2 °F 87% 30.03 in 10.0 mi West 4.6 mph - N/A   Overcast
4:33 AM 33.8 °F 30.8 °F 30.2 °F 87% 30.03 in 10.0 mi NNW 3.5 mph - N/A   Overcast
4:53 AM 33.8 °F 30.8 °F 30.2 °F 87% 30.03 in 10.0 mi WNW 3.5 mph - N/A   Overcast
5:13 AM 33.8 °F 30.8 °F 30.2 °F 87% 30.03 in 10.0 mi NW 3.5 mph - N/A   Overcast
5:34 AM 33.8 °F 30.8 °F 30.2 °F 87% 30.03 in 10.0 mi NW 3.5 mph - N/A   Overcast
5:53 AM 33.8 °F 28.6 °F 30.2 °F 87% 30.03 in 10.0 mi NW 5.8 mph - N/A   Overcast
6:13 AM 33.8 °F 29.6 °F 30.2 °F 87% 30.03 in 10.0 mi North 4.6 mph - N/A   Overcast
6:33 AM 33.8 °F 28.6 °F 28.4 °F 81% 30.04 in 10.0 mi NNW 5.8 mph - N/A   Overcast
6:54 AM 33.8 °F 27.7 °F 28.4 °F 81% 30.03 in 10.0 mi North 6.9 mph - N/A   Overcast
7:14 AM 33.8 °F 30.8 °F 28.4 °F 81% 30.03 in 10.0 mi NW 3.5 mph - N/A   Overcast
7:33 AM 33.8 °F 29.6 °F 28.4 °F 81% 30.04 in 10.0 mi NW 4.6 mph - N/A   Overcast
7:53 AM 33.8 °F 28.6 °F 28.4 °F 81% 30.05 in 10.0 mi NW 5.8 mph - N/A   Overcast
8:13 AM 33.8 °F 27.7 °F 28.4 °F 81% 30.05 in 10.0 mi NNW 6.9 mph - N/A   Overcast
8:33 AM 33.8 °F 28.6 °F 28.4 °F 81% 30.06 in 10.0 mi NNW 5.8 mph - N/A   Overcast
8:53 AM 33.8 °F 28.6 °F 26.6 °F 75% 30.06 in 10.0 mi NNW 5.8 mph - N/A   Overcast
9:13 AM 33.8 °F 27.7 °F 26.6 °F 75% 30.06 in 10.0 mi NNW 6.9 mph - N/A   Overcast
9:33 AM 35.6 °F 30.7 °F 26.6 °F 70% 30.07 in 10.0 mi NNW 5.8 mph - N/A   Overcast
9:53 AM 35.6 °F 29.2 °F 24.8 °F 65% 30.08 in 10.0 mi NNW 8.1 mph - N/A   Overcast
10:13 AM 35.6 °F 27.1 °F 24.8 °F 65% 30.08 in 10.0 mi NNW 12.7 mph - N/A   Overcast
10:33 AM 35.6 °F 27.1 °F 24.8 °F 65% 30.08 in 10.0 mi North 12.7 mph - N/A   Overcast
10:53 AM 35.6 °F 26.6 °F 23.0 °F 60% 30.09 in 10.0 mi NNW 13.8 mph - N/A   Overcast
11:13 AM 35.6 °F 27.1 °F 23.0 °F 60% 30.09 in 10.0 mi NNW 12.7 mph - N/A   Overcast
11:33 AM 35.6 °F 25.9 °F 23.0 °F 60% 30.09 in 10.0 mi NNW 16.1 mph 20.7 mph N/A   Overcast
11:53 AM 37.4 °F 28.2 °F 21.2 °F 52% 30.09 in 10.0 mi NNW 16.1 mph 21.9 mph N/A   Overcast
12:13 PM 37.4 °F 28.2 °F 21.2 °F 52% 30.09 in 10.0 mi NNW 16.1 mph - N/A   Overcast
12:33 PM 39.2 °F 30.5 °F 21.2 °F 49% 30.09 in 10.0 mi North 16.1 mph - N/A   Overcast
12:53 PM 39.2 °F 29.8 °F 23.0 °F 52% 30.09 in 10.0 mi NNW 18.4 mph 24.2 mph N/A   Mostly Cloudy
1:13 PM 39.2 °F 29.8 °F 21.2 °F 49% 30.08 in 10.0 mi NNW 18.4 mph 25.3 mph N/A   Overcast
1:33 PM 39.2 °F 29.8 °F 21.2 °F 49% 30.08 in 10.0 mi NW 18.4 mph 21.9 mph N/A   Overcast
1:53 PM 39.2 °F 30.8 °F 21.2 °F 49% 30.08 in 10.0 mi NNW 15.0 mph 24.2 mph N/A   Overcast
2:13 PM 39.2 °F 30.2 °F 21.2 °F 49% 30.08 in 10.0 mi NNW 17.3 mph 20.7 mph N/A   Mostly Cloudy
2:33 PM 41.0 °F 31.9 °F 21.2 °F 45% 30.08 in 10.0 mi NW 19.6 mph 23.0 mph N/A   Overcast
2:53 PM 41.0 °F 32.5 °F 21.2 °F 45% 30.08 in 10.0 mi NNW 17.3 mph 23.0 mph N/A   Overcast
3:13 PM 39.2 °F 29.8 °F 21.2 °F 49% 30.08 in 10.0 mi NNW 18.4 mph 23.0 mph N/A   Overcast
3:33 PM 39.2 °F 30.5 °F 21.2 °F 49% 30.09 in 10.0 mi NNW 16.1 mph - N/A   Mostly Cloudy
3:54 PM 41.0 °F 32.8 °F 21.2 °F 45% 30.09 in 10.0 mi NNW 16.1 mph 24.2 mph N/A   Mostly Cloudy
4:13 PM 42.8 °F 35.1 °F 21.2 °F 42% 30.09 in 10.0 mi NNW 16.1 mph 23.0 mph N/A   Scattered Clouds
4:33 PM 41.0 °F 32.2 °F 21.2 °F 45% 30.09 in 10.0 mi NNW 18.4 mph 21.9 mph N/A   Mostly Cloudy
4:54 PM 41.0 °F 33.5 °F 21.2 °F 45% 30.09 in 10.0 mi NNW 13.8 mph - N/A   Overcast
5:13 PM 41.0 °F 33.1 °F 21.2 °F 45% 30.10 in 10.0 mi NW 15.0 mph - N/A   Overcast
5:33 PM 39.2 °F 29.8 °F 21.2 °F 49% 30.10 in 10.0 mi NNW 18.4 mph 23.0 mph N/A   Mostly Cloudy
5:53 PM 39.2 °F 31.2 °F 21.2 °F 49% 30.10 in 10.0 mi NNW 13.8 mph - N/A   Mostly Cloudy
6:13 PM 39.2 °F 31.2 °F 23.0 °F 52% 30.11 in 10.0 mi NNW 13.8 mph 21.9 mph N/A   Overcast
6:33 PM 39.2 °F 32.0 °F 24.8 °F 56% 30.11 in 10.0 mi NNW 11.5 mph - N/A   Overcast
6:53 PM 39.2 °F 32.0 °F 23.0 °F 52% 30.12 in 10.0 mi NNW 11.5 mph - N/A   Overcast
7:13 PM 37.4 °F 31.4 °F 24.8 °F 60% 30.12 in 10.0 mi NNW 8.1 mph - N/A   Overcast
7:33 PM 37.4 °F 32.1 °F 24.8 °F 60% 30.12 in 10.0 mi NNW 6.9 mph - N/A   Overcast
7:53 PM 37.4 °F 32.1 °F 24.8 °F 60% 30.13 in 10.0 mi NNW 6.9 mph - N/A   Overcast
8:13 PM 37.4 °F 30.8 °F 26.6 °F 65% 30.13 in 10.0 mi NNW 9.2 mph - N/A   Overcast
8:33 PM 37.4 °F 30.3 °F 26.6 °F 65% 30.13 in 10.0 mi NNW 10.4 mph - N/A   Overcast
8:53 PM 37.4 °F 31.4 °F 26.6 °F 65% 30.14 in 10.0 mi North 8.1 mph - N/A   Overcast
9:13 PM 35.6 °F 27.5 °F 26.6 °F 70% 30.14 in 10.0 mi NNW 11.5 mph - N/A   Mostly Cloudy
9:33 PM 35.6 °F 29.2 °F 26.6 °F 70% 30.14 in 10.0 mi NW 8.1 mph - N/A   Scattered Clouds
9:53 PM 33.8 °F 27.7 °F 26.6 °F 75% 30.15 in 10.0 mi NNW 6.9 mph - N/A   Mostly Cloudy
10:13 PM 35.6 °F 30.7 °F 28.4 °F 75% 30.16 in 10.0 mi NNW 5.8 mph - N/A   Overcast
10:33 PM 35.6 °F 31.7 °F 28.4 °F 75% 30.16 in 10.0 mi NNW 4.6 mph - N/A   Overcast
10:54 PM 33.8 °F 29.6 °F 28.4 °F 81% 30.16 in 10.0 mi NNW 4.6 mph - N/A   Overcast
11:13 PM 33.8 °F 30.8 °F 28.4 °F 81% 30.16 in 10.0 mi NW 3.5 mph - N/A   Overcast
11:34 PM 33.8 °F 29.6 °F 28.4 °F 81% 30.16 in 10.0 mi NW 4.6 mph - N/A   Overcast
11:54 PM 33.8 °F 29.6 °F 28.4 °F 81% 30.17 in 10.0 mi NW 4.6 mph - N/A   Overcast